User: anonymous   Login
Location: Fort Wayne
(41.1310°N, 85.1290°W)
Time: 23:18:58
(UTC-04:00)
Language:

SR - Orbit

View from above orbital plane
View from above orbital plane
View from above satellite
View from above satellite

Ground track
Ground track

The orbit data is extracted from the following two-line orbital elements,

1 00046U 60007B   16145.35737444  .00000067  00000-0  36590-4 0  9997
2 00046  66.6902  98.1998 0208401 159.9862 200.9576 14.48878423923923
Epoch (UTC): 24 May 2016 08:34:37
Eccentricity: 0.0208401
inclination: 66.6902°
perigee height: 581 km
apogee height: 877 km
right ascension of ascending node: 98.1998°
argument of perigee: 159.9862°
revolutions per day: 14.48878423
mean anomaly at epoch: 200.9576°
orbit number at epoch: 92392

The dashed part of the orbit path shows where the satellite is in the earth's shadow,  

DLR